[[{"header":{"parameterUnit":"m.s-1","parameterCategory":1,"la1":30.2991,"la2":30.254,"lo1":-89.0895,"lo2":-89.0444,"dy":0.0017,"dx":0.0017,"nx":28,"ny":28,"refTime":"2023-03-21T21:00:00:Z","depth":0,"parameterNumber":2,"parameterNumberName":"U-component_of_WINDS"},"data":[0,0,0,0,0,0,0,0,0,0,0,0,0,0,0,0,0,0,0,0,0,0,0,0,0,0,0,0,0,0,0,0,0,0,0,0,0,0,0,0,0,0,0,0,0,0,0,0,0,0,0,0,0,0,0,0,0,0,-1.7964,-1.7964,0,-1.7958,-1.7958,-1.7958,-1.793,-1.793,-1.7929,-1.7928,-1.7924,-1.7925,-1.7925,0,0,0,0,0,0,0,0,0,0,0,0,0,-1.7952,-1.7952,-1.7964,-1.7964,-1.7964,-1.7958,-1.7958,-1.7958,-1.793,-1.793,-1.7929,-1.7928,-1.7924,-1.7925,-1.7925,0,0,0,0,0,0,0,0,0,0,0,0,0,-1.7953,-1.7952,-1.7964,-1.7949,-1.7948,-1.7958,-1.7958,-1.7958,-1.7931,-1.7929,-1.7928,-1.7928,-1.7924,-1.7925,-1.7925,-1.795,0,0,-1.7928,-1.7928,0,0,0,0,0,0,0,0,-1.7953,-1.7953,-1.7951,-1.795,-1.7948,-1.7944,-1.7953,-1.7956,-1.7931,-1.7937,-1.7928,-1.7927,-1.7932,-1.7932,-1.7933,-1.795,-1.795,-1.7928,-1.7928,-1.7929,-1.7929,0,0,0,0,0,0,0,-1.7953,-1.7954,-1.7962,-1.7951,-1.795,-1.7943,-1.7942,-1.7953,-1.794,-1.7936,-1.7934,-1.7934,-1.7931,-1.7932,-1.7933,-1.795,-1.7928,-1.7928,-1.7929,-1.7929,-1.7988,-1.7989,0,0,0,0,0,0,-1.7955,-1.7954,-1.7962,-1.7961,-1.7948,-1.7944,-1.7943,-1.7946,-1.794,-1.7938,-1.7935,-1.7933,-1.7931,-1.7932,-1.7932,-1.7961,-1.7929,-1.7929,-1.793,-1.7987,-1.7989,-1.799,0,0,0,0,0,0,-1.7955,-1.7956,-1.7962,-1.7957,-1.7957,-1.7946,-1.7949,-1.7947,-1.7948,-1.7939,-1.7936,-1.7939,-1.7931,-1.7931,-1.7946,-1.7961,-1.793,-1.793,-1.7986,-1.7988,-1.7989,-1.8019,0,0,0,0,0,0,-1.7954,-1.7956,-1.7964,-1.7957,-1.7958,-1.7975,-1.795,-1.7947,-1.795,-1.7947,-1.7942,-1.794,-1.793,-1.7945,-1.7947,-1.7961,-1.7931,-1.7984,-1.7987,-1.7989,-1.8017,-1.8022,-1.8026,0,0,0,0,0,-1.7954,-1.7973,-1.7965,-1.7966,-1.7968,-1.7976,-1.7976,-1.7964,-1.7951,-1.796,-1.7954,-1.794,-1.7959,-1.7947,-1.7949,-1.7963,-1.7983,-1.7986,-1.7988,-1.8015,-1.8021,-1.8026,0,0,0,0,0,0,-1.7982,-1.7972,-1.7963,-1.798,-1.7979,-1.7971,-1.7982,-1.7971,-1.7973,-1.7971,-1.7956,-1.7955,-1.7972,-1.797,-1.7956,-1.7988,-1.7969,-1.7972,-1.7989,-1.7994,-1.7999,-1.7998,-1.7932,0,0,0,0,0,-1.7991,-1.7997,-1.7988,-1.8004,-1.8004,-1.7994,-1.7996,-1.7987,-1.7986,-1.7985,-1.798,-1.798,-1.7986,-1.799,-1.7995,-1.8017,-1.8016,-1.8028,-1.8033,-1.8037,-1.8039,-1.8051,-1.8056,-1.7998,-1.7998,-1.7998,0,0,-1.8008,-1.8003,-1.8008,-1.801,-1.8008,-1.8016,-1.7993,-1.8002,-1.8008,-1.7987,-1.8,-1.7997,-1.7996,-1.8014,-1.8022,-1.8013,-1.8055,-1.804,-1.8043,-1.8043,-1.8054,-1.806,-1.8065,-1.8,-1.7999,-1.7999,0,0,-1.8043,-1.804,-1.8053,-1.8052,-1.8049,-1.8042,-1.8046,-1.804,-1.8037,-1.805,-1.8035,-1.8042,-1.8052,-1.8052,-1.8054,-1.8091,-1.8078,-1.8093,-1.8116,-1.8128,-1.8133,-1.8137,-1.815,-1.8155,-1.8096,-1.8096,-1.8096,0,-1.8064,-1.8074,-1.8061,-1.8072,-1.8073,-1.8055,-1.8069,-1.8069,-1.8068,-1.807,-1.8059,-1.8073,-1.8071,-1.8089,-1.8098,-1.81,-1.8104,-1.8093,-1.8133,-1.8137,-1.814,-1.8153,-1.8158,-1.8098,-1.8097,-1.8097,-1.8097,0,-1.8101,-1.8109,-1.812,-1.812,-1.8123,-1.8135,-1.8125,-1.813,-1.8121,-1.8116,-1.813,-1.8127,-1.8132,-1.8136,-1.8127,-1.8154,-1.8148,-1.8135,-1.8116,-1.8148,-1.8159,-1.8164,-1.81,-1.8099,-1.8099,-1.8098,0,0,-1.8152,-1.8145,-1.815,-1.815,-1.8147,-1.8153,-1.8165,-1.8169,-1.8173,-1.8175,-1.8184,-1.8195,-1.8183,-1.8185,-1.8177,-1.8187,-1.8217,-1.8174,-1.8173,-1.8181,-1.8246,-1.8255,-1.8261,-1.8209,-1.821,-1.8211,-1.8246,0,-1.8185,-1.8204,-1.8193,-1.8214,-1.8221,-1.8205,-1.8216,-1.8215,-1.8211,-1.8217,-1.8213,-1.822,-1.8205,-1.8206,-1.8216,-1.8211,-1.823,-1.8209,-1.8219,-1.8219,-1.8218,-1.8266,-1.8275,-1.8309,-1.8251,-1.8251,-1.8252,0,-1.8225,-1.8228,-1.8249,-1.8246,-1.8248,-1.8258,-1.8261,-1.8267,-1.8268,-1.8264,-1.8266,-1.8256,-1.8269,-1.8251,-1.8268,-1.8254,-1.8258,-1.8257,-1.8258,-1.8257,-1.8237,-1.8267,-1.8319,-1.8324,-1.8259,-1.8258,-1.8258,0,-1.826,-1.8269,-1.8283,-1.8284,-1.828,-1.8287,-1.8286,-1.8285,-1.8288,-1.8292,-1.8294,-1.8299,-1.8302,-1.8307,-1.8299,-1.8286,-1.8317,-1.8298,-1.8315,-1.8315,-1.8321,-1.832,-1.8374,-1.8325,-1.8325,-1.8325,-1.8325,0,-1.8297,-1.8311,-1.8298,-1.8307,-1.8322,-1.8311,-1.8327,-1.8324,-1.8324,-1.8332,-1.8319,-1.8327,-1.8316,-1.8324,-1.8318,-1.8333,-1.8335,-1.8333,-1.8331,-1.8333,-1.8333,-1.8334,-1.8332,-1.8326,-1.8326,-1.8326,-1.8325,0,-1.8337,-1.833,-1.8344,-1.8339,-1.8339,-1.835,-1.8347,-1.8355,-1.8351,-1.8361,-1.8363,-1.8356,-1.8365,-1.8358,-1.8366,-1.8362,-1.8382,-1.8378,-1.8382,-1.838,-1.8397,-1.8395,-1.8452,-1.8459,-1.8407,-1.8407,-1.8408,0,-1.8361,-1.8371,-1.8368,-1.8373,-1.8372,-1.838,-1.8383,-1.8373,-1.8378,-1.8379,-1.8388,-1.8395,-1.84,-1.8415,-1.8411,-1.8418,-1.8413,-1.8432,-1.8413,-1.8416,-1.8412,-1.8412,-1.8413,-1.8436,-1.8436,-1.8437,-1.8437,0,-1.8404,-1.84,-1.8405,-1.841,-1.8415,-1.8418,-1.842,-1.8425,-1.8415,-1.8421,-1.8429,-1.8433,-1.8442,-1.8449,-1.8455,-1.8455,-1.8445,-1.8443,-1.8447,-1.8449,-1.8451,-1.845,-1.8392,-1.8442,-1.8441,-1.8441,-1.8441,-1.844,-1.8437,-1.8445,-1.8444,-1.8451,-1.8452,-1.8454,-1.8462,-1.8459,-1.8465,-1.8471,-1.8465,-1.8476,-1.8477,-1.8483,-1.8485,-1.8493,-1.8485,-1.8491,-1.8492,-1.8494,-1.8496,-1.8451,-1.8494,-1.8494,-1.8494,-1.8494,-1.8494,0,-1.8479,-1.8478,-1.8484,-1.8487,-1.8493,-1.8483,-1.8485,-1.8491,-1.85,-1.8502,-1.8507,-1.8518,-1.8526,-1.8523,-1.853,-1.8538,-1.8533,-1.854,-1.8539,-1.8539,-1.8503,-1.8498,-1.8543,-1.8543,-1.8543,-1.8543,-1.8543,-1.8543,-1.8501,-1.8515,-1.8511,-1.8526,-1.8525,-1.8534,-1.8536,-1.8539,-1.8541,-1.8552,-1.8559,-1.8557,-1.8557,-1.8565,-1.8572,-1.8571,-1.8574,-1.8582,-1.858,-1.8546,-1.8541,-1.8537,-1.8532,-1.8583,-1.8583,-1.8615,-1.8615,-1.8615]},{"header":{"parameterUnit":"m.s-1","parameterCategory":1,"la1":30.2991,"la2":30.254,"lo1":-89.0895,"lo2":-89.0444,"dy":0.0017,"dx":0.0017,"nx":28,"ny":28,"refTime":"2023-03-21T21:00:00:Z","depth":0,"parameterNumber":3,"parameterNumberName":"V-component_of_WINDS"},"data":[0,0,0,0,0,0,0,0,0,0,0,0,0,0,0,0,0,0,0,0,0,0,0,0,0,0,0,0,0,0,0,0,0,0,0,0,0,0,0,0,0,0,0,0,0,0,0,0,0,0,0,0,0,0,0,0,0,0,2.7446,2.7445,0,2.7384,2.7383,2.7382,2.7341,2.7341,2.7341,2.7341,2.7272,2.727,2.7269,0,0,0,0,0,0,0,0,0,0,0,0,0,2.7527,2.7525,2.7446,2.7445,2.7445,2.7384,2.7383,2.7382,2.7341,2.7341,2.7341,2.7341,2.7272,2.727,2.7269,0,0,0,0,0,0,0,0,0,0,0,0,0,2.7481,2.7525,2.7446,2.7417,2.7414,2.7384,2.7383,2.7382,2.7342,2.7341,2.7341,2.734,2.7273,2.7271,2.7268,2.7261,0,0,2.7261,2.726,0,0,0,0,0,0,0,0,2.7483,2.7478,2.7422,2.7419,2.7415,2.737,2.7386,2.7341,2.7342,2.7369,2.7341,2.734,2.7304,2.7299,2.7288,2.7258,2.7255,2.7261,2.7259,2.7258,2.7258,0,0,0,0,0,0,0,2.7486,2.748,2.7421,2.7421,2.7417,2.7406,2.7399,2.7377,2.7339,2.7366,2.7363,2.7357,2.7302,2.7291,2.7286,2.7254,2.7261,2.7259,2.7257,2.7256,2.7215,2.7215,0,0,0,0,0,0,2.7495,2.7483,2.7423,2.7419,2.7449,2.7405,2.7397,2.7385,2.7339,2.7332,2.7357,2.7355,2.7295,2.7289,2.7284,2.7273,2.7258,2.7256,2.7255,2.7215,2.7215,2.7215,0,0,0,0,0,0,2.7497,2.749,2.7426,2.745,2.7441,2.7404,2.739,2.7384,2.7372,2.7333,2.7325,2.7352,2.7295,2.7287,2.7268,2.727,2.7255,2.7253,2.7214,2.7215,2.7215,2.7252,0,0,0,0,0,0,2.7499,2.7491,2.7488,2.7451,2.744,2.7412,2.7391,2.7383,2.7369,2.7365,2.7326,2.7319,2.7294,2.7271,2.7265,2.7267,2.7251,2.7214,2.7214,2.7215,2.725,2.7254,2.7256,0,0,0,0,0,2.7502,2.75,2.7488,2.7481,2.7437,2.7412,2.7406,2.7378,2.7369,2.7366,2.7341,2.732,2.7271,2.727,2.7262,2.7263,2.7213,2.7214,2.7215,2.7249,2.7253,2.7256,0,0,0,0,0,0,2.7536,2.7494,2.7481,2.7467,2.7444,2.7405,2.74,2.7383,2.736,2.7358,2.7323,2.7314,2.7298,2.7278,2.7278,2.7254,2.724,2.7239,2.7268,2.7272,2.7275,2.728,2.7249,0,0,0,0,0,2.7543,2.7528,2.7491,2.7481,2.7471,2.7438,2.7426,2.7407,2.738,2.737,2.7343,2.7317,2.7296,2.7282,2.7261,2.7247,2.7238,2.7244,2.7247,2.725,2.725,2.7243,2.7245,2.7218,2.7218,2.7218,0,0,2.7554,2.753,2.7522,2.7488,2.7467,2.7452,2.7429,2.7413,2.7401,2.7367,2.7347,2.7327,2.7296,2.728,2.7271,2.7263,2.7256,2.7251,2.7254,2.7252,2.7244,2.7246,2.7249,2.7219,2.7218,2.7218,0,0,2.7569,2.7548,2.7539,2.752,2.749,2.7469,2.7467,2.7431,2.7417,2.7398,2.7372,2.7356,2.732,2.73,2.7284,2.7293,2.7274,2.7286,2.7303,2.7296,2.7298,2.73,2.7304,2.7306,2.7286,2.7287,2.7287,0,2.7587,2.7564,2.7536,2.7522,2.7508,2.7479,2.7469,2.7451,2.7415,2.7406,2.7397,2.7353,2.7329,2.7309,2.7311,2.73,2.7296,2.7291,2.7301,2.7302,2.7303,2.7307,2.7308,2.7288,2.7288,2.7288,2.7288,0,2.7588,2.7572,2.7568,2.7537,2.7522,2.751,2.748,2.7469,2.7451,2.743,2.7411,2.7383,2.7355,2.7349,2.733,2.7326,2.7322,2.7307,2.7292,2.7308,2.7311,2.7312,2.7291,2.729,2.729,2.7289,0,0,2.7621,2.7576,2.7575,2.7562,2.7528,2.7514,2.7501,2.7477,2.7468,2.7444,2.7433,2.7404,2.7391,2.7374,2.7353,2.7347,2.7357,2.7333,2.7332,2.734,2.7352,2.7364,2.7366,2.7344,2.7344,2.7344,2.7355,0,2.763,2.7607,2.7583,2.7568,2.7554,2.7526,2.7515,2.7493,2.7473,2.7457,2.7434,2.7415,2.7399,2.7389,2.7382,2.7358,2.7359,2.7356,2.7333,2.7332,2.7343,2.7367,2.7379,2.739,2.7356,2.7356,2.7356,0,2.7638,2.7619,2.7604,2.7573,2.7566,2.7557,2.7533,2.7518,2.7492,2.7478,2.7461,2.7439,2.7424,2.741,2.7388,2.7387,2.7376,2.7363,2.7362,2.7359,2.7346,2.7366,2.7393,2.7395,2.7357,2.7357,2.7357,0,2.7665,2.7635,2.7623,2.7611,2.7575,2.7569,2.7553,2.7527,2.7515,2.7494,2.7485,2.7462,2.7449,2.7431,2.7403,2.7396,2.7385,2.7369,2.7373,2.7374,2.7372,2.7373,2.7399,2.7364,2.7364,2.7364,2.7364,0,2.7679,2.7671,2.7635,2.7627,2.7617,2.7589,2.7579,2.7561,2.7539,2.7526,2.75,2.7489,2.7453,2.7437,2.7416,2.7402,2.7395,2.7384,2.7378,2.7387,2.7388,2.7379,2.7378,2.7364,2.7364,2.7364,2.7364,0,2.7708,2.7683,2.7668,2.7636,2.7627,2.7622,2.7593,2.7585,2.7564,2.7549,2.7544,2.7511,2.7492,2.7463,2.7434,2.7419,2.7409,2.7399,2.7419,2.7416,2.7422,2.7422,2.7444,2.7446,2.7409,2.7409,2.7409,0,2.7718,2.7712,2.768,2.7671,2.7657,2.7642,2.763,2.7602,2.759,2.7562,2.7556,2.7535,2.7517,2.7487,2.746,2.7438,2.7428,2.7438,2.7425,2.7434,2.743,2.7431,2.7431,2.7441,2.7441,2.7442,2.7442,0,2.774,2.7729,2.7714,2.7694,2.7681,2.7664,2.7645,2.7639,2.7607,2.7595,2.7576,2.7562,2.7534,2.7513,2.7488,2.7471,2.7451,2.7447,2.7447,2.7456,2.7468,2.7463,2.7428,2.7446,2.7446,2.7445,2.7445,2.7445,2.7761,2.7755,2.7732,2.7716,2.77,2.7684,2.7675,2.7654,2.7639,2.7615,2.7599,2.7581,2.7556,2.7521,2.7505,2.749,2.7482,2.7481,2.7481,2.7482,2.7486,2.747,2.7485,2.7485,2.7485,2.7485,2.7485,0,2.7783,2.7768,2.7753,2.7729,2.7717,2.7702,2.7681,2.7671,2.7657,2.7636,2.762,2.7598,2.7579,2.7552,2.753,2.7524,2.7514,2.7519,2.7519,2.7516,2.7494,2.7497,2.7527,2.7527,2.7527,2.7527,2.7527,2.7527,2.7793,2.7782,2.7769,2.775,2.7734,2.7718,2.7708,2.7693,2.7677,2.7655,2.764,2.7623,2.7599,2.7576,2.7558,2.755,2.7544,2.7552,2.7542,2.7521,2.7517,2.7514,2.7516,2.755,2.755,2.7565,2.7565,2.7566]}]]